Total_Precipitation_Accumulation
0.00 0.00 0.00 0.00 0.00 0.00 0.00 0.00 0.00 0.00 0.00 0.00 0.00 0.00 0.00 0.00 0.01 0.01 0.13 0.31 0.42 0.33 0.20 0.16 0.02 0.00 0.00 0.00 0.00 0.00 0.00 0.00 0.00 0.01 0.02 0.04 0.03 0.03 0.03 0.05 0.06 0.05 0.05
0.00 0.00 0.00 0.00 0.00 0.00 0.00 0.00 0.00 0.00 0.00 0.00 0.00 0.00 0.00 0.01 0.03 0.04 0.16 0.25 0.31 0.25 0.18 0.30 0.05 0.00 0.00 0.00 0.00 0.00 0.00 0.01 0.01 0.01 0.04 0.05 0.05 0.03 0.03 0.03 0.02 0.01 0.01
0.00 0.00 0.00 0.00 0.00 0.00 0.00 0.00 0.00 0.00 0.00 0.00 0.00 0.01 0.05 0.04 0.03 0.11 0.25 0.28 0.35 0.19 0.12 0.19 0.03 0.01 0.00 0.00 0.00 0.00 0.00 0.01 0.01 0.01 0.02 0.03 0.05 0.03 0.01 0.01 0.01 0.01 0.01
0.00 0.00 0.00 0.00 0.00 0.00 0.00 0.00 0.00 0.00 0.00 0.00 0.03 0.06 0.06 0.06 0.05 0.14 0.23 0.33 0.35 0.16 0.12 0.07 0.03 0.00 0.00 0.00 0.00 0.00 0.00 0.00 0.00 0.00 0.00 0.01 0.03 0.03 0.03 0.03 0.03 0.02 0.00
0.02 0.01 0.00 0.00 0.01 0.01 0.01 0.00 0.00 0.00 0.01 0.05 0.08 0.09 0.08 0.07 0.08 0.16 0.21 0.41 0.31 0.14 0.05 0.05 0.01 0.00 0.00 0.00 0.00 0.00 0.00 0.00 0.00 0.00 0.00 0.01 0.04 0.07 0.04 0.02 0.00 0.00 0.00
0.08 0.10 0.00 0.00 0.01 0.01 0.03 0.04 0.02 0.01 0.02 0.04 0.11 0.17 0.21 0.17 0.17 0.30 0.14 0.38 0.25 0.10 0.10 0.02 0.01 0.00 0.00 0.00 0.00 0.00 0.00 0.00 0.00 0.00 0.00 0.02 0.03 0.02 0.01 0.01 0.00 0.00 0.00
0.10 0.12 0.10 0.01 0.01 0.02 0.03 0.06 0.09 0.09 0.06 0.09 0.11 0.20 0.42 0.55 0.78 0.89 0.55 0.57 0.42 0.12 0.08 0.02 0.01 0.00 0.00 0.00 0.00 0.00 0.00 0.00 0.00 0.00 0.00 0.01 0.02 0.01 0.00 0.00 0.00 0.00 0.00
0.12 0.09 0.14 0.11 0.06 0.02 0.02 0.03 0.06 0.10 0.11 0.10 0.19 0.23 0.52 0.91 0.91 1.21 1.01 0.82 0.50 0.27 0.05 0.02 0.00 0.00 0.00 0.00 0.00 0.00 0.00 0.00 0.00 0.00 0.00 0.00 0.01 0.01 0.01 0.01 0.00 0.00 0.00
0.05 0.05 0.05 0.07 0.06 0.04 0.02 0.00 0.01 0.04 0.12 0.34 0.40 0.41 0.44 0.57 0.49 0.63 0.81 0.78 0.58 0.27 0.04 0.01 0.00 0.00 0.00 0.00 0.00 0.00 0.00 0.00 0.00 0.00 0.00 0.00 0.01 0.01 0.01 0.00 0.00 0.00 0.00
0.00 0.01 0.01 0.01 0.01 0.03 0.07 0.04 0.00 0.00 0.06 0.33 0.43 0.65 0.44 0.36 0.44 0.76 1.10 0.85 0.56 0.31 0.03 0.00 0.00 0.00 0.00 0.00 0.00 0.00 0.00 0.00 0.00 0.00 0.00 0.00 0.00 0.00 0.01 0.00 0.00 0.01 0.01
0.03 0.00 0.00 0.00 0.00 0.01 0.01 0.10 0.04 0.01 0.02 0.25 0.42 0.61 0.48 0.37 0.45 0.80 1.48 1.40 0.72 0.43 0.05 0.00 0.00 0.00 0.00 0.00 0.00 0.00 0.00 0.00 0.00 0.00 0.00 0.00 0.00 0.00 0.01 0.01 0.00 0.01 0.01
0.10 0.04 0.03 0.02 0.01 0.01 0.01 0.03 0.13 0.17 0.15 0.23 0.23 0.30 0.34 0.37 0.49 0.89 1.32 1.47 0.89 0.64 0.13 0.00 0.00 0.00 0.00 0.00 0.00 0.00 0.00 0.00 0.00 0.00 0.00 0.00 0.00 0.00 0.01 0.01 0.00 0.00 0.01
0.15 0.10 0.06 0.06 0.04 0.02 0.02 0.02 0.04 0.16 0.24 0.27 0.31 0.31 0.21 0.30 0.67 0.92 1.09 1.08 0.74 0.62 0.18 0.01 0.00 0.00 0.00 0.00 0.00 0.00 0.00 0.00 0.00 0.00 0.00 0.00 0.00 0.00 0.00 0.01 0.01 0.01 0.01
0.06 0.05 0.05 0.02 0.02 0.03 0.02 0.03 0.02 0.04 0.21 0.25 0.28 0.31 0.25 0.18 0.61 1.31 1.28 0.91 0.58 0.47 0.25 0.04 0.01 0.00 0.00 0.00 0.00 0.00 0.00 0.00 0.00 0.00 0.00 0.00 0.00 0.00 0.00 0.01 0.01 0.01 0.01
0.01 0.03 0.03 0.01 0.02 0.03 0.02 0.06 0.06 0.03 0.05 0.19 0.27 0.28 0.31 0.18 0.50 1.46 1.68 0.83 0.62 0.52 0.25 0.06 0.02 0.01 0.01 0.00 0.00 0.00 0.00 0.00 0.00 0.00 0.00 0.00 0.00 0.00 0.00 0.01 0.01 0.01 0.01
0.00 0.00 0.03 0.01 0.00 0.01 0.03 0.10 0.08 0.07 0.10 0.12 0.24 0.32 0.35 0.29 0.41 0.97 1.25 0.90 0.88 0.64 0.35 0.06 0.02 0.03 0.01 0.00 0.00 0.00 0.00 0.00 0.00 0.00 0.00 0.00 0.00 0.00 0.01 0.01 0.01 0.01 0.01
0.00 0.00 0.00 0.01 0.01 0.02 0.02 0.13 0.11 0.07 0.09 0.10 0.12 0.35 0.46 0.30 0.31 0.70 1.17 0.76 0.76 0.76 0.50 0.21 0.12 0.04 0.02 0.01 0.00 0.00 0.00 0.00 0.00 0.00 0.00 0.00 0.00 0.00 0.00 0.01 0.01 0.01 0.01
0.00 0.00 0.00 0.01 0.03 0.04 0.05 0.09 0.11 0.08 0.08 0.11 0.06 0.12 0.36 0.45 0.60 0.87 1.21 1.08 0.73 0.77 0.70 0.45 0.31 0.08 0.01 0.02 0.01 0.00 0.00 0.00 0.00 0.00 0.00 0.00 0.00 0.00 0.00 0.00 0.00 0.00 0.00
0.00 0.00 0.00 0.01 0.05 0.08 0.11 0.12 0.14 0.10 0.14 0.16 0.14 0.06 0.16 0.37 0.73 1.12 1.35 1.43 1.28 0.92 0.88 0.80 0.52 0.25 0.05 0.01 0.02 0.01 0.01 0.00 0.00 0.00 0.00 0.00 0.00 0.00 0.00 0.00 0.00 0.00 0.00
0.00 0.00 0.00 0.00 0.05 0.12 0.13 0.16 0.12 0.11 0.12 0.12 0.11 0.14 0.15 0.32 0.55 0.86 1.24 1.47 1.54 1.12 1.00 1.14 0.91 0.44 0.24 0.09 0.02 0.02 0.01 0.00 0.00 0.00 0.00 0.00 0.00 0.00 0.00 0.00 0.00 0.00 0.00
0.00 0.00 0.00 0.01 0.03 0.08 0.13 0.12 0.12 0.11 0.16 0.13 0.13 0.22 0.24 0.34 0.62 0.90 1.21 1.29 1.33 1.34 0.93 0.96 1.30 0.80 0.52 0.25 0.09 0.04 0.01 0.00 0.00 0.00 0.00 0.00 0.00 0.00 0.00 0.00 0.00 0.00 0.00
0.00 0.00 0.00 0.00 0.01 0.04 0.07 0.09 0.11 0.10 0.13 0.13 0.12 0.16 0.28 0.35 0.44 0.66 0.90 0.91 0.97 0.89 1.06 0.96 1.35 1.07 0.84 0.35 0.11 0.04 0.04 0.01 0.00 0.00 0.00 0.00 0.00 0.00 0.00 0.00 0.00 0.00 0.00
0.00 0.00 0.00 0.00 0.01 0.02 0.04 0.11 0.20 0.25 0.20 0.17 0.16 0.14 0.17 0.27 0.37 0.43 0.54 0.62 0.66 0.63 0.58 0.70 1.22 0.80 0.58 0.44 0.16 0.06 0.05 0.01 0.00 0.00 0.00 0.00 0.00 0.00 0.00 0.00 0.00 0.00 0.00
0.00 0.00 0.00 0.00 0.00 0.02 0.03 0.11 0.23 0.24 0.16 0.20 0.24 0.23 0.18 0.32 0.41 0.45 0.37 0.32 0.49 0.62 0.53 0.48 0.78 0.91 0.42 0.39 0.39 0.13 0.02 0.02 0.02 0.03 0.00 0.00 0.00 0.00 0.00 0.00 0.00 0.00 0.00
0.00 0.00 0.00 0.00 0.00 0.01 0.03 0.06 0.16 0.21 0.19 0.15 0.15 0.23 0.24 0.29 0.31 0.48 0.43 0.35 0.40 0.41 0.53 0.41 0.42 0.79 0.72 0.29 0.27 0.20 0.12 0.06 0.05 0.04 0.01 0.00 0.00 0.00 0.00 0.00 0.00 0.00 0.00
0.00 0.00 0.00 0.00 0.00 0.00 0.03 0.04 0.08 0.12 0.19 0.20 0.16 0.19 0.26 0.25 0.32 0.38 0.59 0.54 0.52 0.77 0.56 0.44 0.24 0.46 0.55 0.57 0.35 0.33 0.27 0.15 0.09 0.06 0.07 0.00 0.00 0.00 0.00 0.00 0.00 0.00 0.00